This is the latest recevied weather packets stored in our database for station/object WD4ITN. If no packets are shown the sender has not sent any weather packets the latest 10 day(s).
| Time | Temp. | Humidity | Pressure | Rain* | Wind** | Luminosity | Snow |
|---|---|---|---|---|---|---|---|
| 1787872712 | 21.11° C | 92% | 1016 hPa | 0.76 mm | - | - | - |
| 1787872409 | 21.11° C | 92% | 1016 hPa | 0.76 mm | - | - | - |
| 1787872100 | 21.11° C | 91% | 1016 hPa | 0.76 mm | - | - | - |
| 1787871796 | 21.11° C | 91% | 1015.9 hPa | 0.76 mm | - | - | - |
| 1787871496 | 21.11° C | 90% | 1015.7 hPa | 0.76 mm | - | - | - |
| 1787871198 | 21.11° C | 89% | 1015.7 hPa | 0.76 mm | - | - | - |
| 1787870914 | 21.11° C | 89% | 1015.7 hPa | 0.76 mm | - | - | - |
| 1787870607 | 21.11° C | 88% | 1015.7 hPa | 0.76 mm | - | - | - |
| 1787870310 | 21.67° C | 88% | 1015.6 hPa | 0.76 mm | - | - | - |
| 1787870008 | 21.67° C | 83% | 1015.7 hPa | 0.76 mm | - | - | - |
| 1787869708 | 22.22° C | 82% | 1015.6 hPa | 0.76 mm | - | - | - |
| 1787869401 | 22.22° C | 81% | 1015.8 hPa | 0.76 mm | - | - | - |
| 1787869098 | 22.22° C | 82% | 1015.9 hPa | 0.76 mm | - | - | - |
| 1787868795 | 22.22° C | 83% | 1015.9 hPa | 0.76 mm | - | - | - |
| 1787868499 | 22.22° C | 83% | 1015.9 hPa | 0.76 mm | - | - | - |
| 1787868221 | 22.22° C | 85% | 1015.9 hPa | 0.76 mm | - | - | - |
| 1787867911 | 22.22° C | 85% | 1015.7 hPa | 0.76 mm | - | - | - |
| 1787867610 | 22.22° C | 86% | 1015.4 hPa | 0.76 mm | - | - | - |
| 1787867308 | 22.22° C | 89% | 1015.3 hPa | 0.76 mm | - | - | - |
| 1787867007 | 21.67° C | 91% | 1015.2 hPa | 0.76 mm | - | - | - |
| 1787866701 | 21.11° C | 90% | 1014.9 hPa | 0.76 mm | - | - | - |
| 1787866411 | 21.11° C | 91% | 1014.9 hPa | 0.76 mm | - | - | - |
| 1787866106 | 21.11° C | 92% | 1015.1 hPa | 0.76 mm | - | - | - |
| 1787865807 | 20.56° C | 92% | 1015.2 hPa | 0.76 mm | - | - | - |
| 1787865495 | 20.56° C | 93% | 1015.5 hPa | 0.76 mm | - | - | - |
* Rain since midnight (hover to see other rain measurements)
** Current wind speed in m/s (hover to see current wind gust speed)